Time,TemperatureF,DewpointF,PressureIn,WindDirection,WindDirectionDegrees,WindSpeedMPH,WindSpeedGustMPH,Humidity,HourlyPrecipIn,Conditions,Clouds,dailyrainin,SoftwareType,DateUTC
2013-01-17 00:05:00,47.0,47.0,29.91,North,360,0.0,-999.0,99,-99.99,,,-99.99,,2013-01-17 05:05:00,
2013-01-17 00:12:00,47.0,47.0,29.91,North,360,0.0,-999.0,99,-99.99,,,-99.99,,2013-01-17 05:12:00,
2013-01-17 00:22:00,48.0,48.0,29.90,North,360,0.0,-999.0,99,-99.99,,,-99.99,,2013-01-17 05:22:00,
2013-01-17 00:33:00,48.0,48.0,29.90,North,360,0.0,-999.0,99,-99.99,,,-99.99,,2013-01-17 05:33:00,
2013-01-17 00:42:00,48.0,48.0,29.90,North,360,0.0,-999.0,99,-99.99,,,-99.99,,2013-01-17 05:42:00,
2013-01-17 00:52:00,49.0,49.0,29.89,North,360,0.0,-999.0,99,-99.99,,,-99.99,,2013-01-17 05:52:00,
2013-01-17 01:03:00,49.0,49.0,29.90,North,360,0.0,-999.0,99,-99.99,,,-99.99,,2013-01-17 06:03:00,
2013-01-17 01:12:00,48.0,48.0,29.90,North,360,0.0,-999.0,99,-99.99,,,-99.99,,2013-01-17 06:12:00,
2013-01-17 01:22:00,48.0,48.0,29.90,North,360,0.0,-999.0,99,-99.99,,,-99.99,,2013-01-17 06:22:00,
2013-01-17 01:33:00,48.0,48.0,29.91,North,360,0.0,-999.0,99,-99.99,,,-99.99,,2013-01-17 06:33:00,
2013-01-17 01:42:00,48.0,48.0,29.91,North,360,0.0,-999.0,99,-99.99,,,-99.99,,2013-01-17 06:42:00,
2013-01-17 01:52:00,48.0,48.0,29.91,North,360,0.0,-999.0,99,-99.99,,,-99.99,,2013-01-17 06:52:00,
2013-01-17 02:02:00,48.0,48.0,29.91,North,360,0.0,-999.0,99,-99.99,,,-99.99,,2013-01-17 07:02:00,
2013-01-17 02:12:00,48.0,48.0,29.91,North,360,0.0,-999.0,99,-99.99,,,-99.99,,2013-01-17 07:12:00,
2013-01-17 02:22:00,48.0,48.0,29.90,North,360,0.0,-999.0,99,-99.99,,,-99.99,,2013-01-17 07:22:00,
2013-01-17 02:33:00,48.0,48.0,29.91,North,360,0.0,-999.0,99,-99.99,,,-99.99,,2013-01-17 07:33:00,
2013-01-17 02:42:00,48.0,48.0,29.91,North,360,0.0,-999.0,99,-99.99,,,-99.99,,2013-01-17 07:42:00,
2013-01-17 02:52:00,48.0,48.0,29.90,North,360,0.0,-999.0,99,-99.99,,,-99.99,,2013-01-17 07:52:00,
2013-01-17 03:02:00,48.0,48.0,29.90,North,360,0.0,-999.0,99,-99.99,,,-99.99,,2013-01-17 08:02:00,
2013-01-17 03:12:00,48.0,48.0,29.90,North,360,0.0,-999.0,99,-99.99,,,-99.99,,2013-01-17 08:12:00,
2013-01-17 03:22:00,48.0,48.0,29.89,North,360,0.0,-999.0,99,-99.99,,,-99.99,,2013-01-17 08:22:00,
2013-01-17 03:32:00,48.0,48.0,29.89,North,360,0.0,-999.0,99,-99.99,,,-99.99,,2013-01-17 08:32:00,
2013-01-17 03:43:00,48.0,48.0,29.89,North,360,0.0,-999.0,99,-99.99,,,-99.99,,2013-01-17 08:43:00,
2013-01-17 03:52:00,48.0,48.0,29.88,North,360,0.0,-999.0,99,-99.99,,,-99.99,,2013-01-17 08:52:00,
2013-01-17 04:03:00,48.0,48.0,29.88,North,360,0.0,-999.0,99,-99.99,,,-99.99,,2013-01-17 09:03:00,
2013-01-17 04:12:00,48.0,48.0,29.88,North,360,0.0,-999.0,99,-99.99,,,-99.99,,2013-01-17 09:12:00,
2013-01-17 04:22:00,48.0,48.0,29.88,North,360,0.0,-999.0,99,-99.99,,,-99.99,,2013-01-17 09:22:00,
2013-01-17 04:33:00,48.0,48.0,29.88,North,360,0.0,-999.0,99,-99.99,,,-99.99,,2013-01-17 09:33:00,
2013-01-17 08:03:00,48.0,48.0,29.85,North,360,6.0,-999.0,99,-99.99,,,-99.99,,2013-01-17 13:03:00,
2013-01-17 08:12:00,48.0,48.0,29.85,North,360,6.0,-999.0,99,-99.99,,,-99.99,,2013-01-17 13:12:00,
2013-01-17 08:23:00,48.0,48.0,29.85,North,360,6.0,-999.0,99,-99.99,,,-99.99,,2013-01-17 13:23:00,
2013-01-17 08:33:00,48.0,48.0,29.85,North,360,5.0,-999.0,99,-99.99,,,-99.99,,2013-01-17 13:33:00,
2013-01-17 08:43:00,48.0,48.0,29.85,North,360,5.0,-999.0,99,-99.99,,,-99.99,,2013-01-17 13:43:00,
2013-01-17 08:53:00,47.0,47.0,29.84,North,360,6.0,-999.0,99,-99.99,,,-99.99,,2013-01-17 13:53:00,
2013-01-17 09:03:00,47.0,47.0,29.84,North,360,6.0,-999.0,99,-99.99,,,-99.99,,2013-01-17 14:03:00,
2013-01-17 09:12:00,47.0,47.0,29.84,North,360,6.0,-999.0,99,-99.99,,,-99.99,,2013-01-17 14:12:00,
2013-01-17 09:23:00,47.0,47.0,29.84,North,360,5.0,-999.0,99,-99.99,,,-99.99,,2013-01-17 14:23:00,
2013-01-17 09:33:00,47.0,47.0,29.83,North,360,7.0,-999.0,99,-99.99,,,-99.99,,2013-01-17 14:33:00,
2013-01-17 09:43:00,47.0,47.0,29.83,North,360,7.0,-999.0,99,-99.99,,,-99.99,,2013-01-17 14:43:00,
2013-01-17 09:53:00,47.0,47.0,29.84,North,360,7.0,-999.0,99,-99.99,,,-99.99,,2013-01-17 14:53:00,
2013-01-17 10:03:00,47.0,47.0,29.83,North,360,8.0,-999.0,99,-99.99,,,-99.99,,2013-01-17 15:03:00,
2013-01-17 10:12:00,47.0,47.0,29.83,North,360,8.0,-999.0,99,-99.99,,,-99.99,,2013-01-17 15:12:00,
2013-01-17 10:23:00,47.0,47.0,29.83,North,360,8.0,-999.0,99,-99.99,,,-99.99,,2013-01-17 15:23:00,
2013-01-17 10:33:00,47.0,47.0,29.81,North,360,7.0,-999.0,99,-99.99,,,-99.99,,2013-01-17 15:33:00,
2013-01-17 10:43:00,47.0,47.0,29.81,North,360,7.0,-999.0,99,-99.99,,,-99.99,,2013-01-17 15:43:00,
2013-01-17 10:53:00,48.0,48.0,29.80,North,360,7.0,-999.0,99,-99.99,,,-99.99,,2013-01-17 15:53:00,
2013-01-17 11:03:00,48.0,48.0,29.78,North,360,6.0,-999.0,99,-99.99,,,-99.99,,2013-01-17 16:03:00,
2013-01-17 11:12:00,48.0,48.0,29.78,North,360,6.0,-999.0,99,-99.99,,,-99.99,,2013-01-17 16:12:00,
2013-01-17 11:23:00,48.0,48.0,29.78,North,360,6.0,-999.0,99,-99.99,,,-99.99,,2013-01-17 16:23:00,
2013-01-17 11:33:00,47.0,47.0,29.75,North,360,8.0,-999.0,99,-99.99,,,-99.99,,2013-01-17 16:33:00,
2013-01-17 11:43:00,47.0,47.0,29.75,North,360,8.0,-999.0,99,-99.99,,,-99.99,,2013-01-17 16:43:00,
2013-01-17 11:53:00,47.0,47.0,29.75,North,360,6.0,-999.0,99,-99.99,,,-99.99,,2013-01-17 16:53:00,
2013-01-17 12:03:00,47.0,47.0,29.73,North,360,8.0,-999.0,99,-99.99,,,-99.99,,2013-01-17 17:03:00,
2013-01-17 12:13:00,47.0,47.0,29.73,North,360,8.0,-999.0,99,-99.99,,,-99.99,,2013-01-17 17:13:00,
2013-01-17 12:23:00,47.0,47.0,29.73,North,360,3.0,-999.0,99,-99.99,,,-99.99,,2013-01-17 17:23:00,
2013-01-17 12:33:00,47.0,47.0,29.72,North,360,4.0,-999.0,99,-99.99,,,-99.99,,2013-01-17 17:33:00,
2013-01-17 12:43:00,47.0,47.0,29.72,North,360,4.0,-999.0,99,-99.99,,,-99.99,,2013-01-17 17:43:00,
2013-01-17 12:54:00,46.0,46.0,29.72,North,360,6.0,-999.0,99,-99.99,,,-99.99,,2013-01-17 17:54:00,
2013-01-17 13:04:00,47.0,47.0,29.70,North,360,4.0,-999.0,99,-99.99,,,-99.99,,2013-01-17 18:04:00,
2013-01-17 13:13:00,47.0,47.0,29.70,North,360,4.0,-999.0,99,-99.99,,,-99.99,,2013-01-17 18:13:00,
2013-01-17 13:23:00,47.0,47.0,29.69,North,360,4.0,-999.0,99,-99.99,,,-99.99,,2013-01-17 18:23:00,
2013-01-17 13:33:00,47.0,47.0,29.68,North,360,0.0,-999.0,99,-99.99,,,-99.99,,2013-01-17 18:33:00,
2013-01-17 13:43:00,47.0,47.0,29.68,North,360,0.0,-999.0,99,-99.99,,,-99.99,,2013-01-17 18:43:00,
2013-01-17 13:53:00,47.0,47.0,29.68,North,360,0.0,-999.0,99,-99.99,,,-99.99,,2013-01-17 18:53:00,
2013-01-17 14:03:00,46.0,46.0,29.69,North,360,0.0,-999.0,99,-99.99,,,-99.99,,2013-01-17 19:03:00,
2013-01-17 14:13:00,46.0,46.0,29.69,North,360,0.0,-999.0,99,-99.99,,,-99.99,,2013-01-17 19:13:00,
2013-01-17 14:23:00,46.0,46.0,29.68,North,360,0.0,-999.0,99,-99.99,,,-99.99,,2013-01-17 19:23:00,
2013-01-17 14:33:00,46.0,46.0,29.70,North,360,3.0,-999.0,99,-99.99,,,-99.99,,2013-01-17 19:33:00,
2013-01-17 14:43:00,46.0,46.0,29.70,North,360,3.0,-999.0,99,-99.99,,,-99.99,,2013-01-17 19:43:00,
2013-01-17 14:53:00,45.0,45.0,29.67,North,360,6.0,-999.0,99,-99.99,,,-99.99,,2013-01-17 19:53:00,
2013-01-17 15:03:00,44.0,44.0,29.66,North,360,6.0,-999.0,99,-99.99,,,-99.99,,2013-01-17 20:03:00,
2013-01-17 15:13:00,44.0,44.0,29.66,North,360,6.0,-999.0,99,-99.99,,,-99.99,,2013-01-17 20:13:00,
2013-01-17 15:23:00,44.0,44.0,29.65,North,360,9.0,-999.0,99,-99.99,,,-99.99,,2013-01-17 20:23:00,
2013-01-17 15:33:00,43.0,43.0,29.62,North,360,9.0,-999.0,99,-99.99,,,-99.99,,2013-01-17 20:33:00,
2013-01-17 15:43:00,43.0,43.0,29.62,North,360,9.0,-999.0,99,-99.99,,,-99.99,,2013-01-17 20:43:00,
2013-01-17 15:54:00,43.0,43.0,29.62,North,360,5.0,-999.0,99,-99.99,,,-99.99,,2013-01-17 20:54:00,
2013-01-17 16:03:00,43.0,43.0,29.63,North,360,4.0,-999.0,99,-99.99,,,-99.99,,2013-01-17 21:03:00,
2013-01-17 16:13:00,43.0,43.0,29.63,North,360,4.0,-999.0,99,-99.99,,,-99.99,,2013-01-17 21:13:00,
2013-01-17 16:23:00,43.0,43.0,29.64,North,360,1.0,-999.0,99,-99.99,,,-99.99,,2013-01-17 21:23:00,
2013-01-17 16:34:00,42.0,42.0,29.67,North,360,2.0,-999.0,99,-99.99,,,-99.99,,2013-01-17 21:34:00,
2013-01-17 16:43:00,42.0,42.0,29.67,North,360,2.0,-999.0,99,-99.99,,,-99.99,,2013-01-17 21:43:00,
2013-01-17 16:53:00,41.0,41.0,29.70,North,360,4.0,-999.0,99,-99.99,,,-99.99,,2013-01-17 21:53:00,
2013-01-17 17:03:00,40.0,40.0,29.72,North,360,2.0,-999.0,99,-99.99,,,-99.99,,2013-01-17 22:03:00,
2013-01-17 17:12:00,40.0,40.0,29.72,North,360,2.0,-999.0,99,-99.99,,,-99.99,,2013-01-17 22:12:00,
2013-01-17 17:23:00,39.0,39.0,29.73,North,360,2.0,-999.0,99,-99.99,,,-99.99,,2013-01-17 22:23:00,
2013-01-17 17:33:00,37.0,37.0,29.75,North,360,1.0,-999.0,99,-99.99,,,-99.99,,2013-01-17 22:33:00,
2013-01-17 17:43:00,37.0,37.0,29.75,North,360,1.0,-999.0,99,-99.99,,,-99.99,,2013-01-17 22:43:00,
2013-01-17 17:53:00,37.0,37.0,29.77,North,360,0.0,-999.0,99,-99.99,,,-99.99,,2013-01-17 22:53:00,
2013-01-17 18:03:00,35.0,35.0,29.81,North,360,1.0,-999.0,99,-99.99,,,-99.99,,2013-01-17 23:03:00,
2013-01-17 18:12:00,35.0,35.0,29.81,North,360,1.0,-999.0,99,-99.99,,,-99.99,,2013-01-17 23:12:00,
2013-01-17 18:23:00,34.0,34.0,29.85,North,360,1.0,-999.0,99,-99.99,,,-99.99,,2013-01-17 23:23:00,
2013-01-17 18:33:00,33.0,33.0,29.88,North,360,0.0,-999.0,99,-99.99,,,-99.99,,2013-01-17 23:33:00,
2013-01-17 18:43:00,33.0,33.0,29.88,North,360,0.0,-999.0,99,-99.99,,,-99.99,,2013-01-17 23:43:00,
2013-01-17 18:53:00,33.0,33.0,29.89,North,360,1.0,-999.0,99,-99.99,,,-99.99,,2013-01-17 23:53:00,
2013-01-17 19:03:00,32.0,32.0,29.91,North,360,4.0,-999.0,98,-99.99,,,-99.99,,2013-01-18 00:03:00,
2013-01-17 19:12:00,32.0,32.0,29.91,North,360,4.0,-999.0,98,-99.99,,,-99.99,,2013-01-18 00:12:00,
2013-01-17 19:23:00,32.0,32.0,29.91,North,360,2.0,-999.0,99,-99.99,,,-99.99,,2013-01-18 00:23:00,
2013-01-17 19:33:00,32.0,32.0,29.91,North,360,2.0,-999.0,99,-99.99,,,-99.99,,2013-01-18 00:33:00,
2013-01-17 19:42:00,32.0,32.0,29.92,North,360,5.0,-999.0,99,-99.99,,,-99.99,,2013-01-18 00:42:00,
2013-01-17 19:53:00,32.0,32.0,29.94,North,360,4.0,-999.0,99,-99.99,,,-99.99,,2013-01-18 00:53:00,
2013-01-17 20:03:00,31.0,31.0,29.96,North,360,3.0,-999.0,98,-99.99,,,-99.99,,2013-01-18 01:03:00,
2013-01-17 20:13:00,31.0,31.0,29.96,North,360,3.0,-999.0,98,-99.99,,,-99.99,,2013-01-18 01:13:00,
2013-01-17 20:23:00,31.0,31.0,29.98,North,360,2.0,-999.0,98,-99.99,,,-99.99,,2013-01-18 01:23:00,
2013-01-17 20:33:00,31.0,31.0,29.98,North,360,2.0,-999.0,98,-99.99,,,-99.99,,2013-01-18 01:33:00,
2013-01-17 20:43:00,31.0,31.0,29.98,North,360,2.0,-999.0,98,-99.99,,,-99.99,,2013-01-18 01:43:00,
2013-01-17 20:53:00,31.0,31.0,30.00,North,355,2.0,-999.0,99,-99.99,,,-99.99,,2013-01-18 01:53:00,
2013-01-17 21:03:00,31.0,31.0,30.02,North,360,2.0,-999.0,98,-99.99,,,-99.99,,2013-01-18 02:03:00,
2013-01-17 21:12:00,31.0,31.0,30.02,North,360,2.0,-999.0,98,-99.99,,,-99.99,,2013-01-18 02:12:00,
2013-01-17 21:23:00,31.0,31.0,30.02,North,360,2.0,-999.0,98,-99.99,,,-99.99,,2013-01-18 02:23:00,
2013-01-17 21:33:00,31.0,31.0,30.03,North,360,4.0,-999.0,98,-99.99,,,-99.99,,2013-01-18 02:33:00,
2013-01-17 21:43:00,31.0,31.0,30.03,North,360,4.0,-999.0,98,-99.99,,,-99.99,,2013-01-18 02:43:00,
2013-01-17 21:53:00,30.0,29.0,30.04,North,360,4.0,-999.0,98,-99.99,,,-99.99,,2013-01-18 02:53:00,
2013-01-17 22:02:00,29.0,29.0,30.04,North,360,3.0,-999.0,98,-99.99,,,-99.99,,2013-01-18 03:02:00,
2013-01-17 22:12:00,29.0,29.0,30.04,North,360,3.0,-999.0,98,-99.99,,,-99.99,,2013-01-18 03:12:00,
2013-01-17 22:23:00,29.0,29.0,30.07,North,360,3.0,-999.0,98,-99.99,,,-99.99,,2013-01-18 03:23:00,
2013-01-17 22:33:00,29.0,29.0,30.10,North,360,2.0,-999.0,98,-99.99,,,-99.99,,2013-01-18 03:33:00,
2013-01-17 22:42:00,29.0,29.0,30.10,North,360,2.0,-999.0,98,-99.99,,,-99.99,,2013-01-18 03:42:00,
2013-01-17 22:53:00,28.0,27.0,30.10,North,360,1.0,-999.0,97,-99.99,,,-99.99,,2013-01-18 03:53:00,
2013-01-17 23:02:00,28.0,27.0,30.10,North,360,3.0,-999.0,97,-99.99,,,-99.99,,2013-01-18 04:02:00,
2013-01-17 23:12:00,28.0,27.0,30.10,North,360,3.0,-999.0,97,-99.99,,,-99.99,,2013-01-18 04:12:00,
2013-01-17 23:22:00,27.0,26.0,30.11,North,360,4.0,-999.0,97,-99.99,,,-99.99,,2013-01-18 04:22:00,
2013-01-17 23:33:00,27.0,26.0,30.12,North,360,4.0,-999.0,96,-99.99,,,-99.99,,2013-01-18 04:33:00,
2013-01-17 23:42:00,27.0,26.0,30.12,North,360,4.0,-999.0,96,-99.99,,,-99.99,,2013-01-18 04:42:00,
2013-01-17 23:53:00,27.0,26.0,30.14,North,360,4.0,-999.0,96,-99.99,,,-99.99,,2013-01-18 04:53:00,